Location: Martz Observatory
(42.0083°N, 79.0667°W)
Time: 16:08:30
(UTC-04:00)

ISS - Pass Details

Date: 26 May 2018
Orbit: 402 x 406 km, 51.6° (Epoch: 20 June)

Event Time Altitude Azimuth Distance (km) Brightness Sun altitude
Rises 01:20:58 0° 308° (NW) 2,321 0.5 -26.8°
Reaches altitude 10° 01:23:14 10° 320° (NW) 1,459 -0.4 -26.8°
Enters shadow 01:24:42 20° 340° (NNW) 993 -1.2 -26.8°
